Location: Baili�vre
(50.0696°N, 4.2409°E)
Time: 21:51:04
(UTC+00:00)

CZ-2C R/B - Pass Details

Date: 08 August 2020
Orbit: 639 x 705 km, 98.4° (Epoch: 22 September)

Event Time Altitude Azimuth Distance (km) Brightness Sun altitude
Rises 19:48:54 0° 17° (NNE) 3,065 7.3 -5.8°
Reaches altitude 10° 19:51:13 10° 21° (NNE) 2,134 6.5 -6.1°
Maximum altitude 19:55:49 59° 101° (E) 781 3.8 -6.7°
Drops below altitude 10° 20:00:18 10° 181° (S) 2,076 5.9 -7.3°
Sets 20:02:31 0° 186° (S) 2,974 6.8 -7.6°
